Location: Unspecified
(0.0000°N, 0.0000°E)
Time: 21:55:24
(UTC+00:00)

Hubble Space Telescope - Pass Details

Date: 25 March 2023
Orbit: 527 x 530 km, 28.5° (Epoch: 30 March)

Event Time Altitude Azimuth Distance (km) Brightness Sun altitude
Rises 05:37:59 0° 320° (NW) 2,636 3.9 -7.0°
Reaches altitude 10° 05:40:32 10° 334° (NNW) 1,749 3.1 -6.4°
Maximum altitude 05:43:51 24° 29° (NNE) 1,105 2.8 -5.6°
Drops below altitude 10° 05:47:10 10° 84° (E) 1,752 5.3 -4.7°
Sets 05:49:43 0° 98° (E) 2,642 6.6 -4.1°
